FW4441 Weather Reports


Display with metric or nautical units.
time (UTC)temp
F
wind
direction
speed
MPH
gust
MPH
rain 1hr
in
rain 24hr
in
rain mn
in
humidity
%
barometer
mb
20260905200030 69 318 1.0 5.0 0.00 0.01 0.00 68 1014.7
20260905194532 68 315 2.0 5.0 0.00 0.01 0.00 71 1014.8
20260905193030 69 300 1.0 6.0 0.00 0.01 0.00 71 1015.0
20260905191541 68 329 2.0 5.0 0.00 0.01 0.00 73 1015.1
20260905190033 68 263 1.0 6.0 0.00 0.01 0.00 78 1015.3
20260905184530 64 297 0.0 3.0 0.00 0.01 0.00 81 1015.6
20260905183031 65 331 2.0 6.0 0.00 0.01 0.00 84 1015.7
20260905181531 62 257 2.0 6.0 0.00 0.01 0.00 89 1016.0
20260905180032 60 251 1.0 3.0 0.00 0.01 0.00 94 1016.0
20260905173030 57 292 1.0 3.0 0.00 0.01 0.00 96 1016.0
20260905171529 56 301 1.0 5.0 0.00 0.01 0.00 96 1016.0
20260905164607 55 270 0.0 1.0 0.00 0.01 0.00 97 1016.0
20260905160031 54 254 0.0 3.0 0.00 0.01 0.00 97 1015.9
20260905154531 53 19 0.0 2.0 0.00 0.01 0.00 97 1015.9
20260905153028 52 22 1.0 4.0 0.00 0.01 0.00 97 1015.9
20260905151530 52 327 1.0 3.0 0.00 0.01 0.00 97 1015.9
20260905150031 52 215 1.0 2.0 0.00 0.01 0.00 97 1015.8
20260905144529 51 360 1.0 3.0 0.00 0.01 0.00 97 1015.7
20260905143030 51 43 2.0 4.0 0.00 0.01 0.00 97 1015.7
20260905140055 50 151 0.0 3.0 0.00 0.01 0.00 97 1015.5
20260905131531 50 118 0.0 0.0 0.00 0.02 0.00 96 1015.1
20260905130030 51 112 0.0 1.0 0.00 0.02 0.00 96 1015.0
20260905124532 51 112 0.0 1.0 0.00 0.02 0.00 96 1015.1
20260905123144 51 133 0.0 2.0 0.00 0.02 0.00 96 1015.2
20260905121529 51 131 2.0 5.0 0.00 0.02 0.00 96 1015.2
20260905120029 51 22 0.0 4.0 0.00 0.02 0.00 96 1015.0
20260905114646 51 22 4.0 7.0 0.00 0.02 0.00 96 1015.0
20260905113029 51 45 0.0 3.0 0.00 0.02 0.00 96 1015.0
20260905111531 51 45 0.0 0.0 0.00 0.02 0.00 96 1014.9
20260905110032 51 31 0.0 2.0 0.00 0.02 0.00 95 1014.8
20260905101531 52 165 0.0 2.0 0.00 0.02 0.00 95 1014.8
20260905100029 52 157 0.0 0.0 0.00 0.02 0.00 95 1014.8
20260905094530 52 157 0.0 2.0 0.00 0.02 0.00 94 1014.9
20260905091531 53 112 0.0 1.0 0.00 0.02 0.00 94 1014.8
20260905090030 52 112 0.0 2.0 0.00 0.02 0.00 94 1014.7
20260905084530 52 112 0.0 2.0 0.00 0.02 0.00 93 1014.7
20260905083030 52 151 0.0 2.0 0.00 0.02 0.00 93 1014.7
20260905081532 52 170 1.0 4.0 0.00 0.02 0.00 93 1014.5
20260905080032 52 98 0.0 2.0 0.00 0.02 0.00 92 1014.4
20260905073104 53 94 1.0 3.0 0.00 0.02 0.00 91 1014.2
20260905071533 53 145 2.0 4.0 0.00 0.02 0.00 91 1014.1
20260905070104 53 22 2.0 5.0 0.01 0.02 0.00 90 1013.9
20260905064531 53 25 3.0 5.0 0.01 0.02 0.02 89 1013.7
20260905063106 53 59 2.0 5.0 0.01 0.02 0.02 88 1013.7
20260905060031 54 231 1.0 3.0 0.00 0.01 0.01 85 1013.8
20260905053108 56 118 1.0 2.0 0.00 0.01 0.01 82 1013.5
20260905051540 56 90 0.0 0.0 0.00 0.01 0.01 81 1013.7
20260905050030 56 90 0.0 1.0 0.00 0.01 0.01 81 1013.6
20260905044532 56 31 0.0 1.0 0.00 0.01 0.01 81 1013.6
20260905041530 55 22 0.0 2.0 0.00 0.01 0.01 80 1013.4
20260905040107 56 17 2.0 4.0 0.00 0.01 0.01 80 1013.4
20260905034603 56 36 3.0 4.0 0.00 0.01 0.01 80 1013.2
20260905033030 56 22 2.0 4.0 0.00 0.01 0.01 79 1013.0
20260905031529 57 12 3.0 5.0 0.00 0.01 0.01 77 1012.9
20260905030031 58 208 0.0 2.0 0.00 0.01 0.01 75 1012.8
20260905024530 59 51 1.0 4.0 0.00 0.01 0.01 75 1012.7
20260905021531 58 46 3.0 6.0 0.00 0.01 0.01 75 1012.7
20260905014532 60 10 4.0 6.0 0.00 0.01 0.01 71 1012.3
20260905013029 62 345 3.0 7.0 0.00 0.01 0.01 68 1012.2
20260905011530 65 281 4.0 8.0 0.00 0.01 0.01 68 1012.0
20260905010032 65 310 3.0 6.0 0.00 0.01 0.01 70 1012.0
20260905004531 64 345 5.0 9.0 0.00 0.01 0.01 72 1011.9
20260905003032 64 337 3.0 7.0 0.00 0.01 0.01 72 1011.8
20260905001529 64 266 2.0 5.0 0.00 0.01 0.01 71 1011.8
20260905000029 64 211 1.0 2.0 0.00 0.01 0.01 67 1011.7
20260904234531 65 164 0.0 1.0 0.00 0.01 0.01 67 1011.6
20260904233109 64 157 1.0 4.0 0.00 0.01 0.01 68 1011.7
20260904231532 62 169 3.0 5.0 0.00 0.01 0.01 70 1011.7
20260904230106 62 164 4.0 8.0 0.00 0.01 0.01 69 1011.8
20260904224531 63 180 2.0 7.0 0.00 0.01 0.01 69 1011.7
20260904223031 64 185 3.0 7.0 0.00 0.01 0.01 69 1011.6
20260904214529 66 247 1.0 3.0 0.00 0.01 0.01 71 1011.3
20260904213105 64 226 2.0 4.0 0.00 0.01 0.01 73 1011.3
20260904210028 65 88 0.0 2.0 0.00 0.01 0.01 73 1011.2
20260904204606 63 166 1.0 3.0 0.00 0.01 0.01 75 1011.3
20260904203029 63 202 1.0 3.0 0.00 0.01 0.01 76 1011.3
20260904201529 62 176 1.0 4.0 0.00 0.01 0.01 76 1011.4